Overview Statistics Trail Chart Weather Telemetry Raw packets
 

This is the latest recevied weather packets stored in our database for station/object KG5APU. If no packets are shown the sender has not sent any weather packets the latest 10 day(s).

<< 43 44 45 46 47 48 49 >>
Time Temp. Humidity Pressure Rain* Wind** Luminosity Snow
1787972026 30.56° C 55% 1016.2 hPa 0 mm - 0 W/m² -
1787971424 30.56° C 55% 1016.2 hPa 0 mm - 0 W/m² -
1787970818 31.11° C 54% 1016.4 hPa 0 mm - 0 W/m² -
1787970218 31.67° C 51% 1016.1 hPa 0 mm - 0 W/m² -
1787969617 32.22° C 49% 1015.9 hPa 0 mm - 0 W/m² -
1787969016 32.78° C 47% 1015.8 hPa 0 mm - 0 W/m² -
1787968417 32.22° C 48% 1015.8 hPa 0 mm - 0 W/m² -
1787967816 32.78° C 49% 1015.7 hPa 0 mm - 0 W/m² -
1787967217 33.33° C 46% 1015.5 hPa 0 mm - 0 W/m² -
1787966613 33.33° C 45% 1015.5 hPa 0 mm - 0 W/m² -
1787966014 33.33° C 45% 1015.4 hPa 0 mm - 0 W/m² -
1787965408 33.89° C 44% 1015.3 hPa 0 mm - 2 W/m² -
1787964809 34.44° C 42% 1015.2 hPa 0 mm - 5 W/m² -
1787964205 35° C 40% 1015.4 hPa 0 mm - 12 W/m² -
1787963605 35.56° C 40% 1015.2 hPa 0 mm - 21 W/m² -
1787962999 36.11° C 41% 1015.1 hPa 0 mm - 34 W/m² -
1787962399 36.67° C 40% 1015.1 hPa 0 mm - 50 W/m² -
1787961798 37.22° C 37% 1015 hPa 0 mm - 67 W/m² -
1787961196 37.22° C 34% 1014.9 hPa 0 mm - 86 W/m² -
1787960597 37.78° C 36% 1014.8 hPa 0 mm - 105 W/m² -
1787959996 37.78° C 34% 1014.8 hPa 0 mm - 129 W/m² -
1787959392 37.78° C 35% 1014.9 hPa 0 mm - 152 W/m² -
1787958788 38.33° C 33% 1015 hPa 0 mm - 179 W/m² -
1787958185 38.33° C 33% 1014.8 hPa 0 mm - 206 W/m² -
1787957584 38.33° C 33% 1014.7 hPa 0 mm - 236 W/m² -

* Rain latest hour (hover to see other rain measurements)
** Current wind speed in m/s (hover to see current wind gust speed)